Location: Arcizac
(43.0933°N, 0.0112°E)
Time: 14:24:21
(UTC+00:00)

Cosmos 1441 Rocket - Pass Details

Date: 14 December 2019
Orbit: 496 x 541 km, 81.1° (Epoch: 23 January)

Event Time Altitude Azimuth Distance (km) Brightness Sun altitude
Rises 17:10:37 0° 355° (N) 2,632 6.6 -8.1°
Reaches altitude 10° 17:12:50 10° 2° (N) 1,734 5.6 -8.5°
Maximum altitude 17:16:31 46° 77° (ENE) 685 3.4 -9.1°
Drops below altitude 10° 17:20:06 10° 151° (SSE) 1,700 5.8 -9.7°
Sets 17:22:15 0° 158° (SSE) 2,574 6.8 -10.1°
